This is the latest recevied weather packets stored in our database for station/object G1OCN-WX. If no packets are shown the sender has not sent any weather packets the latest 1 day(s).
| Time | Temp. | Humidity | Pressure | Rain* | Wind** | Luminosity | Snow |
|---|---|---|---|---|---|---|---|
| 1836274660 | 15.56° C | 89% | 1012.7 hPa | 0 mm | 3.13 m/s, 208° | - | - |
| 1836274570 | 15.56° C | 89% | 1012.7 hPa | 0 mm | 3.13 m/s, 190° | - | - |
| 1836274360 | 15.56° C | 89% | 1012.7 hPa | 0 mm | 2.24 m/s, 199° | - | - |
| 1836274240 | 15.56° C | 89% | 1012.6 hPa | 0 mm | 2.24 m/s, 194° | - | - |
| 1836274060 | 15.56° C | 89% | 1012.8 hPa | 0 mm | 2.68 m/s, 212° | - | - |
| 1778054245 | 8.33° C | 85% | 1013.8 hPa | 0.25 mm | 4.02 m/s, 62° | - | - |
| 1778054185 | 8.33° C | 85% | 1013.7 hPa | 0.25 mm | 4.02 m/s, 64° | - | - |
| 1778054125 | 8.33° C | 85% | 1013.7 hPa | 0.25 mm | 4.02 m/s, 57° | - | - |
| 1778054064 | 8.33° C | 85% | 1013.7 hPa | 0.25 mm | 4.02 m/s, 71° | - | - |
| 1778054004 | 8.33° C | 85% | 1013.7 hPa | 0.25 mm | 4.02 m/s, 67° | - | - |
| 1778053944 | 8.33° C | 85% | 1013.7 hPa | 0.25 mm | 4.47 m/s, 65° | - | - |
| 1778053884 | 8.33° C | 85% | 1013.7 hPa | 0.25 mm | 5.81 m/s, 71° | - | - |
| 1778053824 | 8.33° C | 85% | 1013.7 hPa | 0.25 mm | 5.81 m/s, 67° | - | - |
| 1778053769 | 8.33° C | 85% | 1013.7 hPa | 0.25 mm | 4.47 m/s, 65° | - | - |
| 1778053704 | 8.33° C | 85% | 1013.7 hPa | 0.25 mm | 4.02 m/s, 67° | - | - |
| 1778053644 | 8.33° C | 85% | 1013.6 hPa | 0.25 mm | 5.36 m/s, 68° | - | - |
| 1778053584 | 8.33° C | 85% | 1013.6 hPa | 0.25 mm | 5.81 m/s, 66° | - | - |
| 1778053524 | 8.33° C | 85% | 1013.6 hPa | 0.25 mm | 5.36 m/s, 70° | - | - |
| 1778053463 | 8.33° C | 85% | 1013.6 hPa | 0.25 mm | 5.81 m/s, 64° | - | - |
| 1778053403 | 8.33° C | 85% | 1013.6 hPa | 0.25 mm | 4.47 m/s, 71° | - | - |
| 1778053343 | 8.33° C | 86% | 1013.6 hPa | 0.25 mm | 5.36 m/s, 66° | - | - |
| 1778053283 | 8.33° C | 86% | 1013.6 hPa | 0.25 mm | 4.02 m/s, 71° | - | - |
| 1778053223 | 8.33° C | 86% | 1013.6 hPa | 0.25 mm | 3.58 m/s, 71° | - | - |
| 1778053163 | 8.33° C | 86% | 1013.6 hPa | 0.25 mm | 4.02 m/s, 71° | - | - |
| 1778053103 | 8.33° C | 86% | 1013.6 hPa | 0.25 mm | 4.47 m/s, 79° | - | - |
* Rain latest hour (hover to see other rain measurements)
** Current wind speed in m/s (hover to see current wind gust speed)